Home   Weather   Fort Worth   Past weeks

Flag for USA Past Weather in Fort Worth, Texas, USA — Yesterday and Last 2 Weeks

67 °F


Feels Like: 67 °F
Forecast: 65 / 85 °F
Wind: 6 mph from South

Location: Meacham International Airport

Current Time: Oct 28, 2016 at 5:18:49 AM

Latest Report: Oct 28, 2016 at 4:53 AM

Visibility: 10 mi

Pressure: 30.14 "Hg

Humidity: 66%

Dew Point: 55 °F

Location of Fort WorthLocation

Past Weather in Fort Worth — Graph


Fort Worth Temperature Yesterday

Maximum temperature yesterday: 87 °F (at 2:53 PM)
Minimum temperature yesterday: 66 °F (at 5:53 AM)
Average temperature yesterday: 76 °F

High & Low Weather Summary for the Past Weeks

High92 °F (Oct 17, 3:53 PM)90% (Oct 14, 8:00 AM)30.30 "Hg (Oct 14, 8:00 AM)
Low51 °F (Oct 21, 7:53 AM)28% (Oct 22, 3:53 PM)29.66 "Hg (Oct 17, 5:53 PM)
Average73 °F62%30.04 "Hg
* Reported Oct 13 3:53 AM — Oct 28 3:53 AM, Fort Worth, Weather by CustomWeather, © 2016

Note: Actual official high and low records may vary slightly from our data, if they occured in-between our weather recording intervals... More about our weather records


Fort Worth Weather History for the Previous 24 Hours

Scroll right to see more
Time TempWeatherWind HumidityBarometerVisibility
3:53 AM
Fri, Oct 28
68 °FClear.7 mph65%30.14 "Hg10 mi
2:53 AM70 °FClear.8 mph64%30.15 "Hg10 mi
1:53 AM70 °FClear.7 mph66%30.14 "Hg10 mi
12:53 AM73 °FClear.9 mph59%30.14 "Hg10 mi
11:53 PM
Thu, Oct 27
74 °FClear.9 mph60%30.15 "Hg10 mi
10:53 PM75 °FClear.13 mph58%30.15 "Hg10 mi
9:53 PM76 °FClear.14 mph58%30.14 "Hg10 mi
8:53 PM76 °FClear.7 mph60%30.13 "Hg10 mi
7:53 PM79 °FClear.7 mph54%30.12 "Hg10 mi
6:53 PM81 °FClear.8 mph49%30.11 "Hg10 mi
5:53 PM85 °FScattered clouds.10 mph42%30.10 "Hg10 mi
4:53 PM86 °FBroken clouds.10 mph42%30.10 "Hg10 mi
3:53 PM87 °FScattered clouds.8 mph42%30.10 "Hg10 mi
2:53 PM87 °FPassing clouds.6 mph42%30.12 "Hg10 mi
1:53 PM85 °FSunny.6 mph43%30.14 "Hg10 mi
12:53 PM83 °FSunny.8 mph50%30.18 "Hg10 mi
11:53 AM80 °FSunny.5 mph52%30.19 "Hg10 mi
10:53 AM76 °FSunny.7 mph62%30.20 "Hg10 mi
9:53 AM73 °FSunny.6 mph64%30.19 "Hg10 mi
8:53 AM69 °FSunny.5 mph68%30.17 "Hg10 mi
7:53 AM66 °FOvercast.5 mph73%30.15 "Hg10 mi
6:53 AM66 °FPassing clouds.6 mph73%30.14 "Hg10 mi
5:53 AM66 °FPassing clouds.6 mph73%30.12 "Hg10 mi
Weather by CustomWeather, © 2016

See weather overviewHow to use our weather pages